This demonstration page uses our WeatherBlox Daily Observations layout. Learn more.

Left ArrowRight Arrow

53.62937, 11.41316

Hourly Observations for April 16, 2016

Temp ( °F °C ) Dew Point ( °F °C ) Humidity (%) Winds ( mph kmh ) Pressure ( in mb ) Visibility ( mi km ) Precip ( " mm )
6:20 am 06:20 Mostly Sunny 43 6 43 6 100 100 E 8 13 29.50 999 4 7 N/A
7:20 am 07:20 Mostly Sunny 46 8 43 6 87 87 ESE 6 9 29.50 999 7 11 N/A
7:50 am 07:50 Mostly Sunny 46 8 43 6 87 87 SSE 9 15 29.50 999 7 11 N/A
8:20 am 08:20 Mostly Sunny 48 9 43 6 82 82 S 10 17 29.50 999 7 11 N/A
8:50 am 08:50 Mostly Sunny 52 11 45 7 77 77 S 14 22 29.50 999 30 48 N/A
9:20 am 09:20 Mostly Sunny 52 11 45 7 77 77 S 12 19 29.50 999 7 11 N/A
9:50 am 09:50 Mostly Sunny 54 12 46 8 77 77 S 13 20 29.50 999 7 11 N/A
10:20 am 10:20 Mostly Sunny 55 13 46 8 72 72 SSW 13 20 29.47 998 7 11 N/A
10:50 am 10:50 Partly Cloudy 55 13 48 9 77 77 SSW 15 24 29.47 998 30 48 N/A
11:20 am 11:20 Mostly Cloudy 57 14 46 8 67 67 SSW 15 24 29.50 999 30 48 N/A
11:50 am 11:50 Mostly Cloudy 57 14 46 8 67 67 SSW 20 31 29.50 999 30 48 N/A
12:20 pm 12:20 Mostly Cloudy 57 14 45 7 63 63 SSW 18 30 29.47 998 30 48 N/A
12:50 pm 12:50 Mostly Cloudy with Light Showers 55 13 45 7 67 67 SW 18 30 29.50 999 30 48 N/A
1:20 pm 13:20 Mostly Cloudy 55 13 48 9 77 77 SSW 13 20 29.50 999 30 48 N/A
1:50 pm 13:50 Mostly Cloudy with Light Showers 59 15 46 8 63 63 SSW 17 28 29.50 999 30 48 N/A
2:20 pm 14:20 Mostly Cloudy 55 13 48 9 77 77 SW 10 17 29.50 999 30 48 N/A
2:50 pm 14:50 Mostly Cloudy 54 12 48 9 82 82 WSW 16 26 29.53 1000 30 48 N/A
3:20 pm 15:20 Partly Cloudy 57 14 46 8 67 67 SW 16 26 29.50 999 30 48 N/A
3:50 pm 15:50 Partly Cloudy 57 14 43 6 59 59 WSW 17 28 29.50 999 30 48 N/A
4:20 pm 16:20 Partly Cloudy 57 14 46 8 67 67 W 15 24 29.53 1000 30 48 N/A
4:50 pm 16:50 Mostly Sunny 59 15 43 6 55 55 WSW 13 20 29.50 999 30 48 N/A
5:20 pm 17:20 Mostly Sunny 59 15 41 5 51 51 SW 16 26 29.50 999 7 11 N/A
5:50 pm 17:50 Mostly Sunny 59 15 39 4 48 48 SW 21 33 29.50 999 7 11 N/A
6:20 pm 18:20 Mostly Sunny 59 15 41 5 51 51 WSW 17 28 29.53 1000 7 11 N/A
6:50 pm 18:50 Mostly Sunny 59 15 41 5 51 51 SW 15 24 29.53 1000 7 11 N/A

Powered by AerisWeather